Regional Weather Roundup
Issued by NWS

Home | Current Version | Previous Version | Text Only | Print | Product List | Glossary Off
Versions: 1 2 3 4 5 6 7 8 9 10 11 12 13 14 15 16 17 18 19 20 21 22 23 24 25 26 27 28 29 30 31 32 33 34 35 36 37 38 39 40 41 42 43 44 45 46 47 48 49 50

000
ASUS43 KBIS 010920
RWRND

NORTH DAKOTA REGIONAL WEATHER ROUNDUP
NATIONAL WEATHER SERVICE BISMARCK ND
300 AM CST SUN MAR 01 2015

NOTE: "FAIR" INDICATES FEW OR NO CLOUDS BELOW 12,000 FEET WITH NO
SIGNIFICANT WEATHER AND/OR OBSTRUCTIONS TO VISIBILITY.


NDZ001>003-009>011-017-011000-
NORTHWEST NORTH DAKOTA

CITY           SKY/WX    TMP DP  RH WIND       PRES   REMARKS
WILLISTON      CLOUDY    11   5  77 SW3       30.14S
MINOT          CLOUDY     9   0  67 SW10      30.10F WCI  -5
MINOT AFB      MIX PCPN   8   3  78 W10       30.10F WCI  -6
$$

NDZ018>021-031>035-040>046-011000-
SOUTHWEST NORTH DAKOTA

CITY           SKY/WX    TMP DP  RH WIND       PRES   REMARKS
BISMARCK       CLEAR      3  -1  83 SW7       30.19S WCI  -9
DICKINSON      PTCLDY    11   3  70 W12       30.10F WCI  -3
GARRISON         N/A      3  -1  83 W8        30.13S WCI -10
HETTINGER ARPT PTCLDY     2  -2  83 W7        30.15F WCI -11
$$

NDZ004>008-012>016-024-026-027-054-011000-
NORTHEAST NORTH DAKOTA

CITY           SKY/WX    TMP DP  RH WIND       PRES   REMARKS
GRAND FORKS    CLEAR      2  -3  80 W7        30.16S WCI -11
GRND FRKS AFB  CLEAR      4  -2  74 W9        30.16S WCI -10
DEVILS LAKE    CLEAR      1  -6  71 W12       30.11S WCI -15
$$

NDZ022-023-025-028>030-036>039-047>053-011000-
SOUTHEAST NORTH DAKOTA

CITY           SKY/WX    TMP DP  RH WIND       PRES   REMARKS
FARGO          CLEAR      2  -4  76 SW6       30.21F WCI  -9
JAMESTOWN      CLEAR      1  -4  79 W6        30.15F WCI -10
$$



USA.gov is the U.S. government's official web portal to all federal, state and local government web resources and services.